AirNav   Jet Aviation Boston
 
 557 users online  

1D8 Redfield Municipal Airport
Redfield, South Dakota, USA

GOING TO REDFIELD?


FAA INFORMATION EFFECTIVE 19 JULY 2018

Location

FAA Identifier: 1D8
Lat/Long: 44-51-44.9140N / 098-31-46.3430W
44-51.748567N / 098-31.772383W
44.8624761 / -98.5295397
(estimated)
Elevation: 1308.5 ft. / 398.8 m (surveyed)
Variation: 07E (1985)
From city: 1 mile SW of REDFIELD, SD
Time zone: UTC -5 (UTC -6 during Standard Time)
Zip code: 57469

Airport Operations

Airport use: Open to the public
Activation date: 11/1945
Control tower: no
ARTCC: MINNEAPOLIS CENTER
FSS: HURON FLIGHT SERVICE STATION
NOTAMs facility: HON (NOTAM-D service available)
Attendance: UNATNDD
Wind indicator: lighted
Segmented circle: yes
Beacon: white-green (lighted land airport)
Operates sunset to sunrise.

Airport Communications

CTAF/UNICOM: 122.8
  • UNICOM UNMONITORED.

Nearby radio navigation aids

VOR radial/distance  VOR name  Freq  Var
HONr330/27.0HURON VORTAC117.6010E
ABRr185/34.0ABERDEEN VOR/DME113.0007E

Airport Services

Fuel available: 100LL
FUEL AVBL 24 HRS WITH CREDIT CARD.
Parking: tiedowns
Airframe service: MINOR
Powerplant service: MINOR
Bottled oxygen: NONE
Bulk oxygen: NONE

Runway Information

Runway 13/31

Dimensions: 3300 x 60 ft. / 1006 x 18 m
Surface: asphalt, in fair condition
Weight bearing capacity: 
Single wheel: 13.0
Runway edge lights: low intensity
RUNWAY 13  RUNWAY 31
Latitude: 44-51.798167N44-51.373833N
Longitude: 098-31.991833W098-31.515333W
Elevation: 1303.0 ft.1303.0 ft.
Gradient: 0.1%0.1%
Traffic pattern: leftleft
Markings: basic, in fair conditionbasic, in fair condition
Runway end identifier lights: nono
Touchdown point: yes, no lightsyes, no lights
Obstructions: 18 ft. tree, 600 ft. from runway, 22:1 slope to clear40 ft. trees, 1860 ft. from runway, 41:1 slope to clear

Airport Ownership and Management from official FAA records

Ownership: Publicly-owned
Owner: CITY OF REDFIELD
626 N. MAIN STREET
REDFIELD, SD 57469
Phone 605-472-4550
Manager: ADAM HANSEN
626 N. MAIN STREET, 626 N. MAIN ST
REDFIELD, SD 57469
Phone 605-472-4550

Airport Operational Statistics

Aircraft based on the field: 11
Single engine airplanes: 9
Multi engine airplanes: 1
Ultralights: 1
    
Aircraft operations: avg 77/week *
88% local general aviation
12% transient general aviation
* for 12-month period ending 02 February 2016

Additional Remarks

ULTRALIGHT ACTIVITY ON AND INVOF ARPT.
MIGRATORY BIRDS AND WILDILFE ON AND INVOF ARPT.

Instrument Procedures

There are no published instrument procedures at 1D8.

Some nearby airports with instrument procedures:

KMKA - Miller Municipal Airport (27 nm SW)
KHON - Huron Regional Airport (31 nm SE)
8D7 - Clark County Airport (35 nm E)
KABR - Aberdeen Regional Airport (35 nm N)
9D0 - Highmore Municipal Airport (44 nm SW)
 
Loc | Ops | Rwys | IFR | FBO | Links
Com | Nav | Svcs | Stats | Notes

Mandan Aero Center
 
Area around 1D8 (Redfield Municipal Airport)
 
Road maps at: MapQuest Bing Google
 
Aerial photo
WARNING: Photo may not be current or correct
Aerial photo of 1D8 (Redfield Municipal Airport)
Photo by Steve Hamilton
Photo taken 28-Aug-2011
looking north.

Do you have a better or more recent aerial photo of Redfield Municipal Airport that you would like to share? If so, please send us your photo.

 
Sectional chart

 
Airport distance calculator
Flying to Redfield Municipal Airport? Find the distance to fly.

From to 1D8

Sunrise and sunset
Times for 22-Jul-2018
 Local
(UTC-5)
 Zulu
(UTC)
Morning civil twilight05:3510:35
Sunrise06:1011:10
Sunset21:1102:11
Evening civil twilight21:4602:46

Current date and time
Zulu (UTC)  22-Jul-2018 05:28:31
Local (UTC-5)  22-Jul-2018 00:28:31
 
METAR
KMKA 
27nm SW 
SuperAWOS
220455Z AUTO 12006KT 10SM 21/18 A3004
KHON 
31nm SE 
220455Z AUTO 12004KT 10SM CLR 20/17 A3008 RMK AO2 SLP178 T02000172
8D7 
35nm E 
SuperAWOS
220455Z AUTO 09006KT 10SM 18/16 A3004
KABR 
36nm N 
220453Z AUTO 09007KT 10SM CLR 21/18 A3010 RMK AO2 SLP187 T02060183
9D0 
44nm SW 
SuperAWOS
220455Z AUTO 13007KT 10SM 21/16 A3005
6E5 
49nm SE 
SuperAWOS
220455Z AUTO 00000KT 10SM 19/16 A3016
TAF
KHON 
31nm SE 
211720Z 2118/2218 04006KT P6SM SCT025 FM212100 07006KT P6SM SKC FM220300 10006KT P6SM SCT250 FM221200 13006KT P6SM BKN150 FM221600 15012KT P6SM SCT150
KABR 
36nm N 
211720Z 2118/2218 VRB05KT P6SM SCT010 SCT025 FM212200 06009KT P6SM FEW200 FM220500 VRB05KT P6SM SCT200 FM221500 16010KT P6SM SCT200
NOTAMs
Click for the latest NOTAMs
NOTAMs are issued by the DoD/FAA and will open in a separate window not controlled by AirNav.

 

 
 

FBO, Fuel Providers, and Aircraft Ground Support

  
 Business Name 
 
 Contact 
 
 Services / Description 
 
Fuel Prices
 
Comments
  
City of Redfield 605-472-4550
no information available

If you are affiliated with City of Redfield and would like to show here your services, contact info, web link, logo, and more, click here
100LL
SS $5.45 
 Updated 15-Jun-2015
 
   write
SS=Self service
Update Fuel Prices
 

Would you like to see your business listed on this page?

 If your business provides an interesting product or service to pilots, flight crews, aircraft, or users of the Redfield Municipal Airport, you should consider listing it here.  To start the listing process, click on the button below
 
Add a business
 

Other Pages about Redfield Municipal Airport

www.redfield-sd.com/...
 
Update a link
 
Copyright © AirNav, LLC. All rights reserved. Privacy Policy  Contact